Simultaneous Nadir Overpasses (SNOs) Predictions

Prediction of SNOs between NOAA-19 and NPP Satellite Orbit:

Table of predicted SNOs for the next 14.0 days since TLE Epoch: 5/28/2016
Index Date (NOAA-19) Time (NOAA-19) Lat,Lon (NOAA-19) SZA (NOAA-19 ) Date (NPP) Time (NPP) Lat,Lon (NPP) SZA (NPP ) Distance(km) Time Diff (sec)
1 06/06/2016 17:23:48 -81.00, 45.93 118.00 06/06/2016 17:24:51 -80.99, 46.09 118.06 2.82 63
2 06/06/2016 18:14:51 81.00,-146.91 62.01 06/06/2016 18:15:37 81.00,-146.92 61.99 0.83 46
3 06/06/2016 19:05:50 -81.00, 20.45 118.01 06/06/2016 19:06:22 -81.01, 20.31 118.01 2.66 32
4 06/06/2016 19:56:52 81.00,-172.02 61.95 06/06/2016 19:57:06 80.99,-171.97 61.93 1.36 14
5 06/06/2016 20:47:51 -81.00, -4.66 118.07 06/06/2016 20:47:51 -80.99, -4.74 118.06 1.56 0
6 06/06/2016
